Location: ????
(55.5675°N, 37.6272°E)
Time: 10:14:47
(UTC+00:00)

Cosmos 1076 Rocket - Pass Details

Date: 14 April 2026
Orbit: 581 x 603 km, 82.5° (Epoch: 19 May)

Event Time Altitude Azimuth Distance (km) Brightness Sun altitude
Rises 22:48:16 0° 350° (N) 2,872 7.9 -22.7°
Reaches altitude 10° 22:50:33 10° 355° (N) 1,964 7.0 -22.6°
Maximum altitude 22:54:48 53° 73° (ENE) 746 4.1 -22.4°
Enters shadow 22:56:11 37° 128° (SE) 949 4.3 -22.3°
